050  
ASGM40 PGUM 231410  
RWRGUM  
WEATHER ROUNDUP FOR THE MARIANAS  
NATIONAL WEATHER SERVICE TIYAN GU  
1200 AM CHST SUN OCT 24 2021  
 
GUZ001>004-231500-  
MARIANA ISLANDS-  
 
CITY SKY/WX TMP DP RH WIND PRES REMARKS
 
GUAM AIRPORT LGT RAIN 77 75 94 S3 29.86F  
ANDERSEN AFB LGT RAIN 75 73 94 S10 29.85F  
ROTA AIRPORT NOT AVBL  
TINIAN AP NOT AVBL  
SAIPAN AP MOCLDY 81 77 89 SE13 29.82F  
 

 
 
 
 
CLICK HERE TO GO TO PREVIOUS BULLETINS.

The Nexlab GU Page Main Text Page